Meteo orario Zagorzany

Oggi, 7 Maggio, Venerdi

Tempo Temperatura Precipitazioni Vento Pressione Umidità
00:00 +7°C° 0 mm 3 m/s 730 mm Hg 75%
01:00 +7°C° 0 mm 4 m/s 730 mm Hg 70%
02:00 +7°C° 0.2 mm 5 m/s 729 mm Hg 75%
03:00 +6°C° 0.2 mm 5 m/s 729 mm Hg 80%
04:00 +6°C° 0.2 mm 5 m/s 728 mm Hg 85%
05:00 +7°C° 0 mm 5 m/s 728 mm Hg 83%
06:00 +8°C° 0 mm 4 m/s 729 mm Hg 81%
07:00 +8°C° 0 mm 4 m/s 729 mm Hg 79%
08:00 +10°C° 0 mm 3 m/s 729 mm Hg 77%
09:00 +11°C° 0 mm 3 m/s 729 mm Hg 74%
10:00 +12°C° 0 mm 3 m/s 729 mm Hg 72%
11:00 +12°C° 0.3 mm 3 m/s 729 mm Hg 69%
12:00 +13°C° 0.3 mm 3 m/s 728 mm Hg 67%
13:00 +14°C° 0.3 mm 4 m/s 728 mm Hg 64%
14:00 +13°C° 0.5 mm 4 m/s 729 mm Hg 69%
15:00 +12°C° 0.5 mm 4 m/s 729 mm Hg 75%
16:00 +12°C° 0.5 mm 4 m/s 729 mm Hg 80%
17:00 +9°C° 0.2 mm 5 m/s 730 mm Hg 83%
18:00 +8°C° 0.2 mm 5 m/s 731 mm Hg 86%
19:00 +6°C° 0.2 mm 5 m/s 731 mm Hg 89%
20:00 +6°C° 0.4 mm 5 m/s 732 mm Hg 88%
21:00 +4°C° 0.4 mm 6 m/s 733 mm Hg 87%
22:00 +3°C° 0.4 mm 6 m/s 734 mm Hg 86%
23:00 +3°C° 0 mm 5 m/s 734 mm Hg 87%

Domani, 8 Maggio, Sabato

Tempo Temperatura Precipitazioni Vento Pressione Umidità
00:00 +2°C° 0 mm 5 m/s 735 mm Hg 88%
01:00 +1°C° 0 mm 5 m/s 736 mm Hg 89%
02:00 +1°C° 0 mm 5 m/s 736 mm Hg 90%
03:00 +1°C° 0 mm 5 m/s 736 mm Hg 90%
04:00 0°C° 0 mm 5 m/s 737 mm Hg 91%
05:00 +1°C° 0 mm 5 m/s 737 mm Hg 88%
06:00 +1°C° 0 mm 5 m/s 738 mm Hg 86%
07:00 +2°C° 0 mm 5 m/s 738 mm Hg 84%
08:00 +3°C° 0 mm 5 m/s 739 mm Hg 76%
09:00 +5°C° 0 mm 5 m/s 739 mm Hg 69%
10:00 +6°C° 0 mm 5 m/s 739 mm Hg 62%
11:00 +7°C° 0 mm 5 m/s 739 mm Hg 59%
12:00 +8°C° 0 mm 5 m/s 739 mm Hg 55%
13:00 +9°C° 0 mm 5 m/s 739 mm Hg 52%
14:00 +9°C° 0 mm 5 m/s 739 mm Hg 51%
15:00 +10°C° 0 mm 5 m/s 739 mm Hg 51%
16:00 +11°C° 0 mm 4 m/s 739 mm Hg 50%
17:00 +9°C° 0 mm 3 m/s 739 mm Hg 57%
18:00 +7°C° 0 mm 2 m/s 740 mm Hg 64%
19:00 +6°C° 0 mm 0 m/s 740 mm Hg 72%
20:00 +6°C° 0 mm 1 m/s 740 mm Hg 72%
21:00 +5°C° 0 mm 1 m/s 740 mm Hg 72%
22:00 +4°C° 0 mm 2 m/s 741 mm Hg 73%
23:00 +4°C° 0 mm 2 m/s 741 mm Hg 73%

Dopodomani, 9 Maggio, Domenica

Tempo Temperatura Precipitazioni Vento Pressione Umidità
00:00 +4°C° 0 mm 2 m/s 741 mm Hg 74%
01:00 +3°C° 0 mm 2 m/s 741 mm Hg 74%
02:00 +3°C° 0 mm 2 m/s 741 mm Hg 77%
03:00 +3°C° 0 mm 2 m/s 741 mm Hg 80%
04:00 +2°C° 0 mm 2 m/s 741 mm Hg 83%
05:00 +3°C° 0 mm 3 m/s 741 mm Hg 77%
06:00 +7°C° 0 mm 3 m/s 741 mm Hg 71%
07:00 +9°C° 0 mm 3 m/s 741 mm Hg 65%
08:00 +11°C° 0 mm 4 m/s 741 mm Hg 60%
09:00 +12°C° 0 mm 4 m/s 741 mm Hg 55%
10:00 +14°C° 0 mm 5 m/s 740 mm Hg 50%
11:00 +15°C° 0 mm 5 m/s 740 mm Hg 48%
12:00 +16°C° 0 mm 5 m/s 740 mm Hg 46%
13:00 +17°C° 0 mm 5 m/s 740 mm Hg 44%
14:00 +17°C° 0 mm 5 m/s 739 mm Hg 48%
15:00 +17°C° 0 mm 5 m/s 739 mm Hg 51%
16:00 +17°C° 0 mm 5 m/s 739 mm Hg 55%
17:00 +15°C° 0 mm 5 m/s 739 mm Hg 59%
18:00 +14°C° 0 mm 5 m/s 739 mm Hg 63%
19:00 +12°C° 0 mm 5 m/s 739 mm Hg 67%
20:00 +10°C° 0 mm 5 m/s 739 mm Hg 70%
21:00 +9°C° 0 mm 5 m/s 739 mm Hg 73%
22:00 +10°C° 0 mm 4 m/s 739 mm Hg 76%
23:00 +8°C° 0 mm 4 m/s 739 mm Hg 79%

10 Maggio, Lunedi

Tempo Temperatura Precipitazioni Vento Pressione Umidità
00:00 +7°C° 0 mm 4 m/s 738 mm Hg 81%
01:00 +7°C° 0 mm 4 m/s 738 mm Hg 83%
02:00 +6°C° 0 mm 4 m/s 738 mm Hg 83%
03:00 +6°C° 0 mm 4 m/s 738 mm Hg 83%
04:00 +6°C° 0 mm 4 m/s 738 mm Hg 83%
05:00 +8°C° 0 mm 5 m/s 738 mm Hg 77%
06:00 +10°C° 0 mm 5 m/s 738 mm Hg 71%
07:00 +13°C° 0 mm 5 m/s 738 mm Hg 65%
08:00 +15°C° 0 mm 6 m/s 738 mm Hg 60%
09:00 +16°C° 0 mm 6 m/s 738 mm Hg 55%
10:00 +18°C° 0 mm 7 m/s 738 mm Hg 50%
11:00 +20°C° 0 mm 7 m/s 738 mm Hg 50%
12:00 +21°C° 0 mm 7 m/s 737 mm Hg 49%
13:00 +22°C° 0 mm 7 m/s 737 mm Hg 49%
14:00 +21°C° 0 mm 7 m/s 737 mm Hg 52%
15:00 +21°C° 0 mm 6 m/s 737 mm Hg 55%
16:00 +21°C° 0 mm 6 m/s 737 mm Hg 59%
17:00 +19°C° 0 mm 5 m/s 737 mm Hg 64%
18:00 +17°C° 0 mm 5 m/s 737 mm Hg 70%
19:00 +15°C° 0 mm 4 m/s 737 mm Hg 76%
20:00 +14°C° 0 mm 4 m/s 737 mm Hg 80%
21:00 +13°C° 0 mm 4 m/s 737 mm Hg 84%
22:00 +12°C° 0 mm 4 m/s 737 mm Hg 88%
23:00 +12°C° 0 mm 3 m/s 737 mm Hg 89%

11 Maggio, Martedi

Tempo Temperatura Precipitazioni Vento Pressione Umidità
00:00 +11°C° 0 mm 3 m/s 737 mm Hg 90%
01:00 +11°C° 0 mm 3 m/s 736 mm Hg 92%
02:00 +10°C° 0 mm 3 m/s 736 mm Hg 92%
03:00 +10°C° 0 mm 3 m/s 736 mm Hg 92%
04:00 +10°C° 0 mm 3 m/s 736 mm Hg 92%
05:00 +12°C° 0 mm 4 m/s 736 mm Hg 86%
06:00 +14°C° 0 mm 4 m/s 736 mm Hg 79%
07:00 +16°C° 0 mm 5 m/s 736 mm Hg 72%
08:00 +19°C° 0 mm 5 m/s 736 mm Hg 66%
09:00 +21°C° 0 mm 6 m/s 736 mm Hg 60%
10:00 +22°C° 0 mm 6 m/s 736 mm Hg 53%
11:00 +23°C° 0 mm 6 m/s 735 mm Hg 52%
12:00 +24°C° 0 mm 6 m/s 735 mm Hg 50%
13:00 +26°C° 0 mm 6 m/s 735 mm Hg 49%
14:00 +24°C° 0 mm 6 m/s 735 mm Hg 52%
15:00 +25°C° 0 mm 5 m/s 734 mm Hg 55%
16:00 +23°C° 0 mm 5 m/s 734 mm Hg 58%
17:00 +21°C° 0 mm 5 m/s 734 mm Hg 67%
18:00 +19°C° 0 mm 4 m/s 734 mm Hg 76%
19:00 +17°C° 0 mm 3 m/s 733 mm Hg 84%
20:00 +16°C° 0 mm 3 m/s 733 mm Hg 87%
21:00 +14°C° 0 mm 3 m/s 733 mm Hg 90%
22:00 +13°C° 0 mm 3 m/s 733 mm Hg 93%
23:00 +12°C° 0 mm 3 m/s 733 mm Hg 93%

12 Maggio, Mercoledi

Tempo Temperatura Precipitazioni Vento Pressione Umidità
00:00 +12°C° 0 mm 3 m/s 733 mm Hg 94%
01:00 +12°C° 0 mm 3 m/s 732 mm Hg 94%
02:00 +11°C° 0 mm 3 m/s 732 mm Hg 93%
03:00 +11°C° 0 mm 3 m/s 732 mm Hg 93%
04:00 +11°C° 0 mm 3 m/s 732 mm Hg 93%
05:00 +13°C° 0 mm 3 m/s 732 mm Hg 84%
06:00 +16°C° 0 mm 3 m/s 731 mm Hg 76%
07:00 +17°C° 0 mm 4 m/s 731 mm Hg 68%
08:00 +19°C° 0 mm 4 m/s 731 mm Hg 63%
09:00 +20°C° 0 mm 4 m/s 731 mm Hg 58%
10:00 +22°C° 0 mm 4 m/s 731 mm Hg 53%
11:00 +22°C° 0 mm 5 m/s 730 mm Hg 54%
12:00 +22°C° 0 mm 5 m/s 730 mm Hg 55%
13:00 +22°C° 0 mm 6 m/s 730 mm Hg 55%
14:00 +22°C° 0 mm 6 m/s 729 mm Hg 57%
15:00 +21°C° 0 mm 6 m/s 729 mm Hg 59%
16:00 +20°C° 0 mm 7 m/s 729 mm Hg 61%
17:00 +17°C° 0 mm 6 m/s 729 mm Hg 63%
18:00 +15°C° 0 mm 6 m/s 729 mm Hg 65%
19:00 +14°C° 0 mm 6 m/s 729 mm Hg 68%
20:00 +13°C° 0 mm 5 m/s 728 mm Hg 70%
21:00 +12°C° 0 mm 4 m/s 728 mm Hg 73%
22:00 +11°C° 0 mm 4 m/s 728 mm Hg 76%
23:00 +11°C° 0 mm 3 m/s 728 mm Hg 79%
Mostrare altro

Abbiamo bisogno del tuo consenso

Meteoprog e i nostri fornitori di servizi possono memorizzare e accedere a dati personali come cookie, identificatori di dispositivi o altre tecnologie simili sul tuo dispositivo e possono elaborare tali dati per personalizzare i contenuti e gli annunci, nonché fornire funzionalità dei social media e analizzarne il traffico.

  • Archiviare e/o accedere alle informazioni sul tuo dispositivo

    Cookie, identificatori di dispositivi o altre informazioni possono essere memorizzati o resi accessibili sul tuo dispositivo per le finalità sopra indicate.

  • Annunci e contenuti personalizzati, misurazione di annunci e contenuti, approfondimenti sul pubblico e sviluppo di prodotti

    Gli annunci e i contenuti possono essere personalizzati in base a un profilo. È possibile aggiungere più dati per personalizzare meglio annunci e contenuti. È possibile misurare il rendimento degli annunci e dei contenuti. È possibile ricavare informazioni sul pubblico che ha visto gli annunci e i contenuti. Tali dati possono essere utilizzati per sviluppare o migliorare l'esperienza, i sistemi e il software dell'utente.

Cliccando su “Accetto”, acconsenti all'uso di cookie, identificatori di dispositivo, web beacon o altre tecnologie simili. Puoi modificare le impostazioni nel browser del tuo dispositivo.

Per determinati scopi, è possibile fare affidamento su interessi legali, piuttosto che sul consenso. Puoi approfondire questo argomento consultando la nostra Informativa sulla privacy e sui cookie.